Weather Roundup
Issued by NWS Springfield, MO

Home | Current Version | Previous Version | Text Only | Print | Product List | Glossary On
Versions: 1 2 3 4 5 6 7 8 9 10 11 12 13 14 15 16 17 18 19 20 21 22 23 24 25 26 27 28 29 30 31 32 33 34 35 36 37 38 39 40 41 42 43 44 45 46 47 48 49 50
000
NZUS99 KSGF 011959
HRRSGF

HOURLY WEATHER
NATIONAL WEATHER SERVICE SPRINGFIELD MO
300 PM CDT MON SEP 01 2014

......SGF CWA......

CITY           SKY/WX    TMP DP  RH WIND       PRES   REMARKS
SPRINGFIELD    SUNNY     83  66  56 S20       29.91F
JOPLIN         SUNNY     87  69  54 S16       29.88F HX  91
WEST PLAINS    MOSUNNY   84  65  52 S14G24    29.96F
ROLLA          MOSUNNY   80  65  59 SW8       29.91S
OSAGE BEACH    SUNNY     81  64  57 SW6       29.90F
BRANSON        MOSUNNY   86  66  51 SE12G21   29.96F

......SURROUNDING SGF CWA......

CITY           SKY/WX    TMP DP  RH WIND       PRES   REMARKS
CHANUTE        CLOUDY    82  69  64 S15       29.88F
PARSONS        PTSUNNY   82  69  64 S13G18    29.88F
COFFEYVILLE    CLOUDY    83  71  67 SE5       29.86F
EMPORIA        CLOUDY    76  67  73 SE7       29.89F
HARRISON AR    MOSUNNY   85  71  63 S14G23    29.96F HX  90
NEAR YELLVILLE MOSUNNY   86  66  51 SE7       29.94F

......KANSAS AND MISSOURI......

CITY           SKY/WX    TMP DP  RH WIND       PRES   REMARKS
KANSAS CTY INT CLOUDY    77  68  73 SW8       29.90F
DOWNTOWN KC    CLOUDY    80  67  64 W8        29.89S
COLUMBIA       PTSUNNY   83  65  54 W12       29.91S
SEDALIA        MOSUNNY   81  67  62 VRB7      29.91F
ST JOSEPH      PTSUNNY   79  68  69 SW7       29.88F
ST LOUIS       PTSUNNY   86  65  49 W5        29.90F
SPIRIT OF STL  CLOUDY    83  65  54 W6        29.88F
KIRKSVILLE     MOSUNNY   79  67  66 SW10      29.88F
WICHITA        PTSUNNY   85  69  58 E9        29.85F
TOPEKA         CLOUDY    80  67  64 W5        29.90F
OLATHE         CLOUDY    78  66  66 SW9       29.90F

......TENNESSEE......

CITY           SKY/WX    TMP DP  RH WIND       PRES   REMARKS
MEMPHIS        MOSUNNY   91  73  55 S14G20    30.00F HX  99
NASHVILLE      PTSUNNY   91  67  44 SW14G21   30.02F HX  94

......ARKANSAS.......

CITY           SKY/WX    TMP DP  RH WIND       PRES   REMARKS
FAYETTEVILLE   PTSUNNY   85  70  60 S17G26    29.92F
FT SMITH       MOSUNNY   92  70  48 S12       29.89F HX  97
LITTLE ROCK    PTSUNNY   90  71  53 S13G18    29.96F HX  96

......OKLAHOMA.......

CITY           SKY/WX    TMP DP  RH WIND       PRES   REMARKS
TULSA          PTSUNNY   94  71  47 S16G33    29.80F HX 101
PONCA CITY     PTSUNNY   88  71  57 E14       29.80F HX  94
MCALESTER      MOSUNNY   91  72  53 S9G22     29.88F HX  98
OKLAHOMA CITY  MOSUNNY   96  69  41 S21G26    29.81F HX 102

......IOWA............

CITY           SKY/WX    TMP DP  RH WIND       PRES   REMARKS
DES MOINES     MOSUNNY   80  62  54 W14       29.82R
QUAD CITIES    PTSUNNY   81  66  60 SW14      29.79R

......ILLINOIS........

CITY           SKY/WX    TMP DP  RH WIND       PRES   REMARKS
QUINCY         SUNNY     80  66  62 W13       29.86F
CHICAGO        PTSUNNY   82  63  52 SW15G24   29.76F




USA.gov is the U.S. government's official web portal to all federal, state and local government web resources and services.